Location: Newark
(25.6108°S, 54.5803°W)
Time: 21:00:49
(UTC+00:00)

Vanguard 2 Rocket - Visible Passes

Search period start: 28 October 2020 00:00
Search period end: 07 November 2020 00:00
Orbit: 554 x 3326 km, 32.9° (Epoch: 28 October)

Date Brightness Start Highest point End Pass type
(mag) Time Alt. Az. Time Alt. Az. Time Alt. Az.
28 Oct 10.4 04:29:03 17° NE 04:29:03 17° NE 04:38:48 10° E visible
28 Oct 9.7 06:34:50 32° NNW 06:44:03 55° NE 07:03:33 10° ESE visible
29 Oct 9.7 05:38:32 36° NNE 05:42:39 40° NE 06:00:24 10° ESE visible
29 Oct 9.7 07:44:20 17° WNW 07:59:53 83° NNE 08:20:09 10° ESE visible
30 Oct 10.0 04:42:12 27° NE 04:42:12 27° NE 04:56:06 10° E visible
30 Oct 9.5 06:47:58 34° NW 06:57:36 70° NNE 07:17:58 10° ESE visible
31 Oct 10.5 03:45:47 14° ENE 03:45:47 14° ENE 03:49:43 10° E visible
31 Oct 9.3 05:51:34 46° N 05:55:55 55° NE 06:15:11 10° ESE visible
31 Oct 9.7 07:57:21 14° WNW 08:14:00 85° SSW 08:34:23 10° ESE visible
01 Nov 9.6 04:55:07 39° NE 04:55:07 39° NE 05:11:41 10° ESE visible
01 Nov 9.4 07:00:54 31° WNW 07:11:25 84° NNE 07:32:13 10° ESE visible
02 Nov 10.2 03:58:38 23° ENE 03:58:38 23° ENE 04:07:11 10° E visible
02 Nov 9.0 06:04:24 51° NNW 06:09:26 70° NNE 06:29:35 10° ESE visible
02 Nov 9.8 08:10:35 10° W 08:28:25 76° SSW 08:48:44 10° ESE visible
03 Nov 9.1 05:07:52 54° NE 05:08:10 54° NE 05:26:28 10° ESE visible
03 Nov 9.5 07:13:39 25° WNW 07:25:34 83° SSW 07:46:28 10° ESE visible
04 Nov 9.7 04:11:18 34° ENE 04:11:18 34° ENE 04:22:47 10° ESE visible
04 Nov 9.0 06:17:04 48° WNW 06:23:17 85° NNE 06:43:49 10° ESE visible
05 Nov 10.4 03:14:43 16° E 03:14:43 16° E 03:18:14 10° E visible
05 Nov 8.8 05:20:28 68° N 05:21:42 70° NNE 05:40:50 10° ESE visible
05 Nov 9.6 07:26:14 18° W 07:40:01 74° SSW 08:00:50 10° ESE visible
06 Nov 9.3 04:23:51 47° ENE 04:23:51 47° ENE 04:37:32 10° ESE visible
06 Nov 9.2 06:29:37 38° WNW 06:37:29 82° SSW 06:58:05 10° ESE visible
